Location: Bílinka
(49.3579°N, 14.3767°E)
Time: 21:48:14
(UTC+00:00)

CZ-6A DEB - Visible Passes

Search period start: 26 February 2024 00:00
Search period end: 07 March 2024 00:00
Orbit: 822 x 895 km, 98.8° (Epoch: 25 February)

Date Brightness Start Highest point End Pass type
(mag) Time Alt. Az. Time Alt. Az. Time Alt. Az.
26 Feb ? 04:04:40 10° NE 04:09:00 23° E 04:13:15 10° SE visible
26 Feb ? 17:17:52 10° SW 17:22:29 25° W 17:27:06 10° NW visible
27 Feb ? 03:55:25 10° NE 03:59:19 19° E 04:03:09 10° SE visible
27 Feb ? 17:07:55 10° SSW 17:12:50 29° W 17:17:45 10° NW visible
28 Feb ? 03:46:16 10° NE 03:49:37 16° E 03:52:55 10° SE visible
29 Feb ? 03:37:16 10° ENE 03:39:53 13° E 03:42:28 10° ESE visible
01 Mar ? 03:28:45 10° ENE 03:30:08 11° E 03:31:30 10° E visible
01 Mar ? 05:06:32 10° NNE 05:12:03 69° ESE 05:17:27 10° S visible
02 Mar ? 04:56:59 10° NNE 05:02:27 58° E 05:07:46 10° S visible
03 Mar ? 04:47:28 10° NNE 04:52:49 49° E 04:58:02 10° S visible
03 Mar ? 18:05:14 10° W 18:06:35 11° W 18:07:57 10° WNW visible
04 Mar ? 04:37:58 10° NNE 04:43:10 41° E 04:48:14 10° SSE visible
04 Mar ? 17:54:13 10° WSW 17:56:50 13° W 17:59:27 10° WNW visible
05 Mar ? 04:28:29 10° NNE 04:33:29 35° E 04:38:22 10° SSE visible
05 Mar ? 17:43:43 10° SW 17:47:05 16° W 17:50:26 10° NW visible
06 Mar ? 04:19:02 10° NE 04:23:47 29° E 04:28:26 10° SSE visible
06 Mar ? 17:33:25 10° SW 17:37:20 19° W 17:41:15 10° NW visible
